View from above orbital plane
|
View from above satellite
|
Ground track
|
The orbit data is extracted from the following two-line orbital elements,
1 33410U 08053C 21015.71320987 .00000251 00000-0 22732-4 0 9991
2 33410 97.8772 10.2158 0119751 127.1291 234.0945 14.99342918666800
Epoch (UTC): | 15 January 2021 17:07:01 |
Eccentricity: | 0.0119751 |
inclination: | 97.8772° |
perigee height: | 486 km |
apogee height: | 652 km |
right ascension of ascending node: | 10.2158° |
argument of perigee: | 127.1291° |
revolutions per day: | 14.99342918 |
mean anomaly at epoch: | 234.0945° |
orbit number at epoch: | 66680 |
The dashed part of the orbit path shows where the satellite is in the earth's shadow,
|
|